Details From CYKL - SCHEFFERVILLE
To CYWK - WABUSH
Flight Number -
Tags generated
Created
Modified
Stats Distance 114 nm / 211 km
Max Altitude 6,500 ft / 1,981 m
Waypoints 4
Social Downloads 2
Likes 0
Share VATSIM

Download

Looking for another format? Having issues loading an existing format? Contact us
Advertisement - Login to hide

Notes

Basic altitude profile: - Ascent Rate: 2500ft/min - Ascent Speed: 250kts - Cruise Altitude: 35000ft - Cruise Speed: 420kts - Descent Rate: 1500ft/min - Descent Speed: 250kts Options: - Use NATs: yes - Use PACOTS: yes - Use low airways: yes - Use high airways: yes

Route

CYKL KAVPO AR11 YWK CYWK

ID Type Via Altitude Latitude Longitude Leg Dist Tot Dist Heading (true) Name
O CYKL APT - 0 ft / 0 m 54.80472˚ -66.80472˚ - 0 nm - SCHEFFERVILLE
KAVPO FIX - 6,500 ft / 1,981 m 54.49861˚ -66.77250˚ 18 nm 18 nm 177° / 177° -
YWK VOR AR11 (AWY-LO) 5,600 ft / 1,707 m 52.96008˚ -66.85353˚ 92 nm 110 nm 182° / 182° WABUSH VOR-DME
O CYWK APT - 0 ft / 0 m 52.90743˚ -66.85488˚ 3 nm 114 nm 181° / 181° WABUSH

Altitude Profile

Advertisement - Login to hide

CYKL

Details ICAO CYKL (YKL)
Name SCHEFFERVILLE
Region Canada
Timezone America/Montreal (UTC-4.0)
Stats Elevation 1,709 ft / 521 m (AMSL)
Location 54.804722° -66.804722°
Runways 1
Magnetic Variation 20.867° W

METAR

CYKL 251300Z AUTO 08004KT 050V170 8SM CLR 01/M07 A2956 RMK SLP038

Decode

TAF

TAF CYKL 250741Z 2508/2520 VRB03KT P6SM SCT040 FM251300 11008KT P6SM SCT010 BKN030 FM251900 09008KT P6SM -SN BKN010 OVC040 RMK FCST BASED ON AUTO OBS. NXT FCST BY 251400Z

Decode

Departure Runways

ID Width Length Bearing (true) Bearing (mag) Surface Threshold Offset Overrun Length
18 150 ft / 46 m 4,992 ft / 1,522 m 149.05° 169.92° Asphalt 0 ft / 0 m 250 ft / 76 m
36 150 ft / 46 m 4,992 ft / 1,522 m 329.06° 349.93° Asphalt 0 ft / 0 m 250 ft / 76 m

CYWK

Details ICAO CYWK (YWK)
Name WABUSH
Region Canada
Timezone America/Goose_Bay (UTC-3.0)
Stats Elevation 1,808 ft / 551 m (AMSL)
Location 52.907429° -66.854885°
Runways 1
Magnetic Variation 19.836° W

METAR

CYWK 251300Z 12006KT 060V130 15SM BKN013 BKN050 02/M01 A2952 RMK SF5SC2 SLP020

Decode

TAF

TAF CYWK 250741Z 2508/2520 VRB03KT 2SM -SN OVC006 TEMPO 2508/2512 6SM -SN SCT006 OVC030 PROB30 2508/2512 11/2SM -SN FM251200 12008KT 4SM -SN BKN006 OVC015 TEMPO 2512/2516 P6SM NSW SCT015 OVC025 PROB30 2512/2514 11/2SM -FZDZ BR BKN005 OVC010 FM251600 10009KT 4SM -RASN BKN008 OVC020 RMK FCST BASED ON AUTO OBS. NXT FCST BY 251400Z

Decode

Destination Runways

ID Width Length Bearing (true) Bearing (mag) Surface Threshold Offset Overrun Length
18 150 ft / 46 m 5,995 ft / 1,827 m 157.18° 177.02° Asphalt 0 ft / 0 m 0 ft / 0 m
36 150 ft / 46 m 5,995 ft / 1,827 m 337.18° 357.02° Asphalt 0 ft / 0 m 0 ft / 0 m